Time,TemperatureF,DewpointF,PressureIn,WindDirection,WindDirectionDegrees,WindSpeedMPH,WindSpeedGustMPH,Humidity,HourlyPrecipIn,Conditions,Clouds,dailyrainin,SoftwareType,DateUTC
2013-01-26 00:06:00,2.9,-3.0,30.37,North,11,2.0,6.0,78,0.00,,,0.00,weatherlink.com 1.10,2013-01-26 06:06:00,
2013-01-26 00:21:00,2.7,-2.0,30.36,NNE,23,2.0,4.0,79,0.00,,,0.00,weatherlink.com 1.10,2013-01-26 06:21:00,
2013-01-26 00:36:00,2.5,-3.0,30.36,North,9,2.0,4.0,79,0.00,,,0.00,weatherlink.com 1.10,2013-01-26 06:36:00,
2013-01-26 00:51:00,2.2,-3.0,30.36,North,3,1.0,3.0,79,0.00,,,0.00,weatherlink.com 1.10,2013-01-26 06:51:00,
2013-01-26 01:06:00,2.0,-3.0,30.37,North,349,0.0,1.0,80,0.00,,,0.00,weatherlink.com 1.10,2013-01-26 07:06:00,
2013-01-26 01:21:00,1.9,-3.0,30.37,NNE,32,2.0,3.0,81,0.00,,,0.00,weatherlink.com 1.10,2013-01-26 07:21:00,
2013-01-26 01:36:00,1.6,-3.0,30.37,NNE,12,0.0,3.0,81,0.00,,,0.00,weatherlink.com 1.10,2013-01-26 07:36:00,
2013-01-26 01:51:00,1.5,-3.0,30.38,NNW,348,0.0,4.0,81,0.00,,,0.00,weatherlink.com 1.10,2013-01-26 07:51:00,
2013-01-26 02:07:00,1.2,-3.0,30.38,North,349,0.0,1.0,82,0.00,,,0.00,weatherlink.com 1.10,2013-01-26 08:07:00,
2013-01-26 02:21:00,1.1,-3.0,30.39,WSW,249,0.0,2.0,83,0.00,,,0.00,weatherlink.com 1.10,2013-01-26 08:21:00,
2013-01-26 02:36:00,0.7,-3.0,30.38,South,190,0.0,1.0,83,0.00,,,0.00,weatherlink.com 1.10,2013-01-26 08:36:00,
2013-01-26 02:51:00,0.8,-3.0,30.39,NNE,32,0.0,1.0,83,0.00,,,0.00,weatherlink.com 1.10,2013-01-26 08:51:00,
2013-01-26 03:06:00,1.1,-3.0,30.38,NE,42,2.0,3.0,83,0.00,,,0.00,weatherlink.com 1.10,2013-01-26 09:06:00,
2013-01-26 03:21:00,1.3,-3.0,30.38,ENE,58,1.0,3.0,82,0.00,,,0.00,weatherlink.com 1.10,2013-01-26 09:21:00,
2013-01-26 03:36:00,1.8,-3.0,30.38,ENE,77,2.0,4.0,81,0.00,,,0.00,weatherlink.com 1.10,2013-01-26 09:36:00,
2013-01-26 03:51:00,1.7,-3.0,30.37,East,85,2.0,3.0,81,0.00,,,0.00,weatherlink.com 1.10,2013-01-26 09:51:00,
2013-01-26 04:07:00,1.5,-3.0,30.36,NE,50,4.0,6.0,80,0.00,,,0.00,weatherlink.com 1.10,2013-01-26 10:07:00,
2013-01-26 04:22:00,1.4,-3.0,30.36,ENE,64,3.0,6.0,81,0.00,,,0.00,weatherlink.com 1.10,2013-01-26 10:22:00,
2013-01-26 04:37:00,1.3,-3.0,30.36,ENE,58,6.0,7.0,81,0.00,,,0.00,weatherlink.com 1.10,2013-01-26 10:37:00,
2013-01-26 04:52:00,1.1,-3.0,30.37,ESE,106,1.0,3.0,81,0.00,,,0.00,weatherlink.com 1.10,2013-01-26 10:52:00,
2013-01-26 05:07:00,1.0,-4.0,30.37,ESE,122,1.0,2.0,81,0.00,,,0.00,weatherlink.com 1.10,2013-01-26 11:07:00,
2013-01-26 05:22:00,1.0,-4.0,30.36,East,79,1.0,4.0,81,0.00,,,0.00,weatherlink.com 1.10,2013-01-26 11:22:00,
2013-01-26 05:37:00,1.0,-3.0,30.36,East,83,4.0,5.0,82,0.00,,,0.00,weatherlink.com 1.10,2013-01-26 11:37:00,
2013-01-26 05:52:00,0.9,-3.0,30.37,East,82,3.0,4.0,82,0.00,,,0.00,weatherlink.com 1.10,2013-01-26 11:52:00,
2013-01-26 06:07:00,0.8,-3.0,30.37,SSE,165,2.0,4.0,83,0.00,,,0.00,weatherlink.com 1.10,2013-01-26 12:07:00,
2013-01-26 06:22:00,0.9,-3.0,30.37,ESE,115,4.0,4.0,83,0.00,,,0.00,weatherlink.com 1.10,2013-01-26 12:22:00,
2013-01-26 06:37:00,1.0,-3.0,30.37,SSE,151,4.0,5.0,83,0.00,,,0.00,weatherlink.com 1.10,2013-01-26 12:37:00,
2013-01-26 06:52:00,1.0,-3.0,30.36,ESE,118,5.0,8.0,83,0.00,,,0.00,weatherlink.com 1.10,2013-01-26 12:52:00,
2013-01-26 07:07:00,1.1,-3.0,30.36,ESE,117,4.0,7.0,82,0.00,,,0.00,weatherlink.com 1.10,2013-01-26 13:07:00,
2013-01-26 07:22:00,1.3,-3.0,30.36,ESE,110,8.0,12.0,82,0.00,,,0.00,weatherlink.com 1.10,2013-01-26 13:22:00,
2013-01-26 07:37:00,1.4,-3.0,30.36,SE,126,5.0,9.0,82,0.00,,,0.00,weatherlink.com 1.10,2013-01-26 13:37:00,
2013-01-26 07:53:00,1.6,-3.0,30.36,SE,135,5.0,12.0,82,0.00,,,0.00,weatherlink.com 1.10,2013-01-26 13:53:00,
2013-01-26 08:08:00,2.2,-2.0,30.36,SE,143,8.0,12.0,81,0.00,,,0.00,weatherlink.com 1.10,2013-01-26 14:08:00,
2013-01-26 08:23:00,2.7,-2.0,30.36,SE,124,6.0,12.0,80,0.00,,,0.00,weatherlink.com 1.10,2013-01-26 14:23:00,
2013-01-26 08:38:00,3.4,-1.0,30.36,ENE,72,6.0,11.0,81,0.00,,,0.00,weatherlink.com 1.10,2013-01-26 14:38:00,
2013-01-26 08:53:00,4.5,0.0,30.34,SE,138,9.0,15.0,80,0.00,,,0.00,weatherlink.com 1.10,2013-01-26 14:53:00,
2013-01-26 09:08:00,5.6,0.0,30.34,ESE,122,11.0,15.0,79,0.00,,,0.00,weatherlink.com 1.10,2013-01-26 15:08:00,
2013-01-26 09:23:00,6.4,1.0,30.34,ESE,102,12.0,18.0,78,0.00,,,0.00,weatherlink.com 1.10,2013-01-26 15:23:00,
2013-01-26 09:39:00,7.4,1.0,30.34,ESE,114,12.0,17.0,76,0.00,,,0.00,weatherlink.com 1.10,2013-01-26 15:39:00,
2013-01-26 09:53:00,8.3,2.0,30.35,SE,125,14.0,17.0,76,0.00,,,0.00,weatherlink.com 1.10,2013-01-26 15:53:00,
2013-01-26 10:09:00,8.9,3.0,30.35,SE,144,8.0,16.0,76,0.00,,,0.00,weatherlink.com 1.10,2013-01-26 16:09:00,
2013-01-26 10:24:00,9.9,4.0,30.34,SE,143,10.0,18.0,75,0.00,,,0.00,weatherlink.com 1.10,2013-01-26 16:24:00,
2013-01-26 10:39:00,10.6,4.0,30.34,East,101,11.0,22.0,73,0.00,,,0.00,weatherlink.com 1.10,2013-01-26 16:39:00,
2013-01-26 10:54:00,11.7,5.0,30.33,ESE,114,13.0,17.0,73,0.00,,,0.00,weatherlink.com 1.10,2013-01-26 16:54:00,
2013-01-26 11:09:00,12.9,5.0,30.33,ESE,108,12.0,21.0,70,0.00,,,0.00,weatherlink.com 1.10,2013-01-26 17:09:00,
2013-01-26 11:24:00,13.9,6.0,30.32,ESE,121,9.0,20.0,70,0.00,,,0.00,weatherlink.com 1.10,2013-01-26 17:24:00,
2013-01-26 11:39:00,14.5,6.0,30.32,SE,139,8.0,19.0,68,0.00,,,0.00,weatherlink.com 1.10,2013-01-26 17:39:00,
2013-01-26 11:54:00,15.8,6.0,30.31,ESE,115,16.0,20.0,66,0.00,,,0.00,weatherlink.com 1.10,2013-01-26 17:54:00,
2013-01-26 12:09:00,16.8,7.0,30.30,East,99,13.0,22.0,66,0.00,,,0.00,weatherlink.com 1.10,2013-01-26 18:09:00,
2013-01-26 12:24:00,18.4,8.0,30.29,East,96,13.0,20.0,64,0.00,,,0.00,weatherlink.com 1.10,2013-01-26 18:24:00,
2013-01-26 12:39:00,19.0,9.0,30.28,ESE,106,13.0,18.0,65,0.00,,,0.00,weatherlink.com 1.10,2013-01-26 18:39:00,
2013-01-26 12:54:00,21.0,10.0,30.27,SE,132,11.0,19.0,62,0.00,,,0.00,weatherlink.com 1.10,2013-01-26 18:54:00,
2013-01-26 13:09:00,22.8,11.0,30.25,SE,139,10.0,21.0,60,0.00,,,0.00,weatherlink.com 1.10,2013-01-26 19:09:00,
2013-01-26 13:25:00,23.5,11.0,30.23,SSE,156,11.0,25.0,58,0.00,,,0.00,weatherlink.com 1.10,2013-01-26 19:25:00,
2013-01-26 13:40:00,24.0,11.0,30.23,SE,130,11.0,27.0,59,0.00,,,0.00,weatherlink.com 1.10,2013-01-26 19:40:00,
2013-01-26 13:55:00,25.1,12.0,30.23,SSE,150,14.0,22.0,58,0.00,,,0.00,weatherlink.com 1.10,2013-01-26 19:55:00,
2013-01-26 14:10:00,26.0,13.0,30.22,ESE,121,12.0,22.0,58,0.00,,,0.00,weatherlink.com 1.10,2013-01-26 20:10:00,
2013-01-26 14:25:00,26.7,14.0,30.20,SE,139,15.0,21.0,59,0.00,,,0.00,weatherlink.com 1.10,2013-01-26 20:25:00,
2013-01-26 14:40:00,27.5,14.0,30.20,SSE,159,16.0,24.0,58,0.00,,,0.00,weatherlink.com 1.10,2013-01-26 20:40:00,
2013-01-26 14:55:00,27.6,14.0,30.19,SSE,159,14.0,25.0,58,0.00,,,0.00,weatherlink.com 1.10,2013-01-26 20:55:00,
2013-01-26 15:10:00,27.8,15.0,30.19,South,184,14.0,22.0,59,0.00,,,0.00,weatherlink.com 1.10,2013-01-26 21:10:00,
2013-01-26 15:25:00,28.1,15.0,30.18,SE,134,8.0,24.0,59,0.00,,,0.00,weatherlink.com 1.10,2013-01-26 21:25:00,
2013-01-26 15:40:00,28.2,16.0,30.17,SSE,158,14.0,21.0,60,0.00,,,0.00,weatherlink.com 1.10,2013-01-26 21:40:00,
2013-01-26 15:55:00,28.4,16.0,30.17,SSE,163,14.0,22.0,60,0.00,,,0.00,weatherlink.com 1.10,2013-01-26 21:55:00,
2013-01-26 16:10:00,28.5,16.0,30.16,East,98,14.0,24.0,59,0.00,,,0.00,weatherlink.com 1.10,2013-01-26 22:10:00,
2013-01-26 16:25:00,28.6,16.0,30.16,SSE,155,13.0,19.0,59,0.00,,,0.00,weatherlink.com 1.10,2013-01-26 22:25:00,
2013-01-26 16:41:00,28.6,16.0,30.16,ESE,115,9.0,19.0,59,0.00,,,0.00,weatherlink.com 1.10,2013-01-26 22:41:00,
2013-01-26 16:56:00,28.5,16.0,30.15,ESE,110,15.0,20.0,60,0.00,,,0.00,weatherlink.com 1.10,2013-01-26 22:56:00,
2013-01-26 17:11:00,28.3,16.0,30.16,SE,146,8.0,16.0,61,0.00,,,0.00,weatherlink.com 1.10,2013-01-26 23:11:00,
2013-01-26 17:26:00,28.1,16.0,30.16,ESE,120,9.0,15.0,61,0.00,,,0.00,weatherlink.com 1.10,2013-01-26 23:26:00,
2013-01-26 17:41:00,27.9,16.0,30.16,East,101,10.0,14.0,62,0.00,,,0.00,weatherlink.com 1.10,2013-01-26 23:41:00,
2013-01-26 17:56:00,28.0,16.0,30.16,ESE,120,13.0,17.0,62,0.00,,,0.00,weatherlink.com 1.10,2013-01-26 23:56:00,
2013-01-26 18:11:00,27.9,16.0,30.15,ESE,117,10.0,17.0,62,0.00,,,0.00,weatherlink.com 1.10,2013-01-27 00:11:00,
2013-01-26 18:26:00,28.0,17.0,30.16,SSE,152,9.0,18.0,63,0.00,,,0.00,weatherlink.com 1.10,2013-01-27 00:26:00,
2013-01-26 18:41:00,28.3,17.0,30.16,ESE,108,13.0,19.0,62,0.00,,,0.00,weatherlink.com 1.10,2013-01-27 00:41:00,
2013-01-26 18:56:00,28.4,17.0,30.15,SE,131,10.0,14.0,62,0.00,,,0.00,weatherlink.com 1.10,2013-01-27 00:56:00,
2013-01-26 19:11:00,28.5,17.0,30.15,SE,134,8.0,16.0,62,0.00,,,0.00,weatherlink.com 1.10,2013-01-27 01:11:00,
2013-01-26 19:26:00,28.6,17.0,30.16,SSE,166,14.0,17.0,62,0.00,,,0.00,weatherlink.com 1.10,2013-01-27 01:26:00,
2013-01-26 19:41:00,28.4,17.0,30.16,SE,132,10.0,15.0,62,0.00,,,0.00,weatherlink.com 1.10,2013-01-27 01:41:00,
2013-01-26 19:56:00,28.2,17.0,30.16,ESE,112,7.0,15.0,62,0.00,,,0.00,weatherlink.com 1.10,2013-01-27 01:56:00,
2013-01-26 20:12:00,27.8,17.0,30.16,SE,132,6.0,14.0,63,0.00,,,0.00,weatherlink.com 1.10,2013-01-27 02:12:00,
2013-01-26 20:27:00,27.3,16.0,30.17,SE,129,8.0,15.0,63,0.00,,,0.00,weatherlink.com 1.10,2013-01-27 02:27:00,
2013-01-26 20:42:00,27.1,16.0,30.16,SSE,167,8.0,13.0,64,0.00,,,0.00,weatherlink.com 1.10,2013-01-27 02:42:00,
2013-01-26 20:57:00,27.1,16.0,30.16,SE,136,8.0,14.0,63,0.00,,,0.00,weatherlink.com 1.10,2013-01-27 02:57:00,
2013-01-26 21:12:00,26.8,16.0,30.16,SE,125,12.0,16.0,63,0.00,,,0.00,weatherlink.com 1.10,2013-01-27 03:12:00,
2013-01-26 21:27:00,26.4,16.0,30.16,SE,131,14.0,16.0,64,0.00,,,0.00,weatherlink.com 1.10,2013-01-27 03:27:00,
2013-01-26 21:42:00,26.0,15.0,30.15,SE,134,12.0,18.0,64,0.00,,,0.00,weatherlink.com 1.10,2013-01-27 03:42:00,
2013-01-26 21:57:00,25.6,15.0,30.15,ESE,121,11.0,20.0,65,0.00,,,0.00,weatherlink.com 1.10,2013-01-27 03:57:00,
2013-01-26 22:12:00,25.4,15.0,30.14,SE,146,10.0,17.0,65,0.00,,,0.00,weatherlink.com 1.10,2013-01-27 04:12:00,
2013-01-26 22:27:00,25.3,15.0,30.14,SSE,152,11.0,17.0,66,0.00,,,0.00,weatherlink.com 1.10,2013-01-27 04:27:00,
2013-01-26 22:42:00,25.2,15.0,30.13,SE,134,11.0,21.0,66,0.00,,,0.00,weatherlink.com 1.10,2013-01-27 04:42:00,
2013-01-26 22:57:00,25.2,15.0,30.13,SE,129,11.0,18.0,66,0.00,,,0.00,weatherlink.com 1.10,2013-01-27 04:57:00,
2013-01-26 23:12:00,25.2,15.0,30.13,SSE,147,9.0,18.0,66,0.00,,,0.00,weatherlink.com 1.10,2013-01-27 05:12:00,
2013-01-26 23:27:00,25.1,16.0,30.13,SE,128,8.0,17.0,67,0.00,,,0.00,weatherlink.com 1.10,2013-01-27 05:27:00,
2013-01-26 23:43:00,24.9,15.0,30.13,SSE,155,9.0,15.0,67,0.00,,,0.00,weatherlink.com 1.10,2013-01-27 05:43:00,
2013-01-26 23:58:00,24.7,15.0,30.13,SSE,163,6.0,13.0,68,0.00,,,0.00,weatherlink.com 1.10,2013-01-27 05:58:00,